JAL525 RJTT-RJCC

Flight info

Callsign JAL525
Flight time 1h 11m
Altitude 37000
Route BRUCE AGRIS Y11 SAMBO Y119 OHMAR Y13 SIRAO Y139 NAVER
Aircraft A359/H-SDE2E3GHIJ1J3J4J5LM1ORWXYZ/LB1D1

Departure

Time 2026-05-01 08:39
Airport Tokyo Haneda International Airport (RJTT)

Arrival

Time 2026-05-01 09:50
Airport New Chitose Airport (RJCC)
Time Latitude Longitude Altitude Speed Heading
2026-05-01 08:07 35.54782 139.78265 30 ft 0 kts 54°
2026-05-01 08:25 35.54778 139.78258 30 ft 2 kts 54°
2026-05-01 08:25 35.54766 139.78239 28 ft 3 kts 54°
2026-05-01 08:25 35.54755 139.78221 28 ft 3 kts 57°
2026-05-01 08:26 35.54747 139.78203 29 ft 3 kts 84°
2026-05-01 08:26 35.54746 139.78188 27 ft 4 kts 119°
2026-05-01 08:26 35.54756 139.78173 27 ft 4 kts 143°
2026-05-01 08:26 35.54771 139.78160 27 ft 2 kts 149°
2026-05-01 08:27 35.54773 139.78159 27 ft 4 kts 149°
2026-05-01 08:30 35.54757 139.78170 27 ft 5 kts 150°
2026-05-01 08:30 35.54713 139.78202 30 ft 10 kts 150°
2026-05-01 08:30 35.54651 139.78246 30 ft 10 kts 150°
2026-05-01 08:30 35.54595 139.78223 28 ft 10 kts 234°
2026-05-01 08:31 35.54617 139.78148 28 ft 11 kts 319°
2026-05-01 08:31 35.54690 139.78091 28 ft 14 kts 330°
2026-05-01 08:31 35.54782 139.78026 28 ft 17 kts 329°
2026-05-01 08:31 35.54891 139.77949 28 ft 19 kts 330°
2026-05-01 08:32 35.55016 139.77860 28 ft 22 kts 330°
2026-05-01 08:32 35.55156 139.77761 28 ft 24 kts 330°
2026-05-01 08:32 35.55308 139.77652 28 ft 27 kts 329°
2026-05-01 08:32 35.55458 139.77546 28 ft 19 kts 330°
2026-05-01 08:33 35.55555 139.77477 29 ft 12 kts 330°
2026-05-01 08:33 35.55618 139.77480 27 ft 11 kts 42°
2026-05-01 08:33 35.55688 139.77504 28 ft 11 kts 345°
2026-05-01 08:33 35.55766 139.77454 28 ft 14 kts 330°
2026-05-01 08:34 35.55857 139.77390 29 ft 16 kts 330°
2026-05-01 08:34 35.55927 139.77354 30 ft 10 kts
2026-05-01 08:34 35.55982 139.77408 29 ft 12 kts 56°
2026-05-01 08:34 35.56031 139.77511 29 ft 15 kts 60°
2026-05-01 08:35 35.56088 139.77632 30 ft 17 kts 60°
2026-05-01 08:35 35.56153 139.77769 31 ft 19 kts 59°
2026-05-01 08:35 35.56225 139.77921 32 ft 22 kts 59°
2026-05-01 08:35 35.56290 139.78058 31 ft 17 kts 59°
2026-05-01 08:36 35.56355 139.78193 31 ft 20 kts 60°
2026-05-01 08:36 35.56422 139.78335 31 ft 17 kts 59°
2026-05-01 08:36 35.56470 139.78435 32 ft 12 kts 60°
2026-05-01 08:36 35.56515 139.78533 32 ft 15 kts 60°
2026-05-01 08:37 35.56558 139.78624 35 ft 8 kts 59°
2026-05-01 08:37 35.56566 139.78665 36 ft 4 kts 105°
2026-05-01 08:37 35.56547 139.78686 37 ft 4 kts 145°
2026-05-01 08:37 35.56534 139.78695 37 ft 0 kts 150°
2026-05-01 08:38 35.56533 139.78696 37 ft 2 kts 150°
2026-05-01 08:38 35.56415 139.78778 36 ft 50 kts 150°
2026-05-01 08:38 35.55903 139.79141 34 ft 118 kts 150°
2026-05-01 08:39 35.55037 139.79764 188 ft 159 kts 153°
2026-05-01 08:39 35.54151 139.80484 1090 ft 149 kts 146°
2026-05-01 08:39 35.53475 139.81488 1733 ft 157 kts 140°
2026-05-01 08:39 35.52752 139.82541 2154 ft 157 kts 147°
2026-05-01 08:40 35.51114 139.84406 2912 ft 176 kts 150°
2026-05-01 08:40 35.50179 139.85467 3182 ft 195 kts 148°
2026-05-01 08:40 35.49269 139.86851 3376 ft 228 kts 129°
2026-05-01 08:41 35.48903 139.88923 3599 ft 272 kts 91°
2026-05-01 08:41 35.49589 139.91191 3978 ft 298 kts 55°
2026-05-01 08:41 35.51185 139.92817 4541 ft 303 kts 25°
2026-05-01 08:41 35.53145 139.93790 5134 ft 305 kts 11°
2026-05-01 08:42 35.55233 139.94257 5718 ft 307 kts
2026-05-01 08:42 35.56645 139.94477 6098 ft 309 kts
2026-05-01 08:42 35.58802 139.94785 6687 ft 312 kts
2026-05-01 08:42 35.60965 139.95087 7314 ft 315 kts
2026-05-01 08:43 35.63180 139.95216 7931 ft 315 kts 355°
2026-05-01 08:43 35.65395 139.95231 8557 ft 319 kts 355°
2026-05-01 08:43 35.67624 139.95240 9187 ft 322 kts 355°
2026-05-01 08:43 35.69872 139.95240 9787 ft 325 kts 355°
2026-05-01 08:44 35.72145 139.95231 10282 ft 332 kts 354°
2026-05-01 08:44 35.74513 139.95213 10573 ft 346 kts 354°
2026-05-01 08:44 35.76968 139.95193 10860 ft 360 kts 354°
2026-05-01 08:44 35.79522 139.95174 11166 ft 372 kts 355°
2026-05-01 08:45 35.82151 139.95155 11486 ft 382 kts 355°
2026-05-01 08:45 35.84832 139.95138 11924 ft 388 kts 355°
2026-05-01 08:45 35.87519 139.95120 12393 ft 393 kts 355°
2026-05-01 08:45 35.90262 139.95102 12887 ft 396 kts 355°
2026-05-01 08:46 35.93025 139.95083 13354 ft 399 kts 355°
2026-05-01 08:46 35.95823 139.95063 13751 ft 404 kts 355°
2026-05-01 08:46 35.98428 139.95043 14072 ft 409 kts 355°
2026-05-01 08:46 36.01294 139.95022 14443 ft 414 kts 355°
2026-05-01 08:47 36.04200 139.95000 14808 ft 419 kts 355°
2026-05-01 08:47 36.07124 139.94978 15176 ft 424 kts 355°
2026-05-01 08:47 36.10100 139.94956 15553 ft 429 kts 355°
2026-05-01 08:47 36.13100 139.94933 15922 ft 434 kts 355°
2026-05-01 08:48 36.16136 139.94910 16312 ft 438 kts 354°
2026-05-01 08:48 36.19201 139.94888 16686 ft 443 kts 354°
2026-05-01 08:48 36.22293 139.94853 17058 ft 447 kts 354°
2026-05-01 08:48 36.25419 139.94760 17443 ft 450 kts 353°
2026-05-01 08:49 36.28563 139.94656 17822 ft 454 kts 353°
2026-05-01 08:49 36.31744 139.94556 18171 ft 458 kts 353°
2026-05-01 08:49 36.34944 139.94460 18537 ft 460 kts 353°
2026-05-01 08:49 36.38147 139.94366 18878 ft 463 kts 353°
2026-05-01 08:50 36.41377 139.94272 19253 ft 466 kts 353°
2026-05-01 08:50 36.44634 139.94217 19604 ft 470 kts 355°
2026-05-01 08:50 36.47915 139.94306 19945 ft 474 kts 358°
2026-05-01 08:50 36.51230 139.94478 20293 ft 477 kts 358°
2026-05-01 08:51 36.54560 139.94676 20638 ft 480 kts 358°
2026-05-01 08:51 36.57913 139.94870 20967 ft 483 kts 358°
2026-05-01 08:51 36.61285 139.95050 21295 ft 486 kts 358°
2026-05-01 08:51 36.64670 139.95214 21618 ft 489 kts 358°
2026-05-01 08:52 36.68088 139.95368 21944 ft 491 kts 358°
2026-05-01 08:52 36.71522 139.95517 22258 ft 494 kts 358°
2026-05-01 08:52 36.74917 139.95661 22559 ft 497 kts 358°
2026-05-01 08:52 36.78397 139.95808 22854 ft 501 kts 358°
2026-05-01 08:53 36.81890 139.95956 23141 ft 503 kts 358°
2026-05-01 08:53 36.85404 139.96115 23402 ft 506 kts 359°
2026-05-01 08:53 36.88914 139.96640 23686 ft 510 kts
2026-05-01 08:53 36.92419 139.97401 23958 ft 513 kts
2026-05-01 08:54 36.95936 139.98262 24224 ft 515 kts
2026-05-01 08:54 36.99456 139.99174 24497 ft 517 kts 10°
2026-05-01 08:54 37.02991 140.00109 24760 ft 520 kts 10°
2026-05-01 08:54 37.06522 140.01048 25030 ft 521 kts 10°
2026-05-01 08:55 37.10083 140.01988 25306 ft 523 kts 10°
2026-05-01 08:55 37.13658 140.02922 25580 ft 525 kts 10°
2026-05-01 08:55 37.17252 140.03855 25862 ft 527 kts 10°
2026-05-01 08:55 37.20856 140.04786 26147 ft 529 kts 10°
2026-05-01 08:56 37.24465 140.05718 26429 ft 531 kts 11°
2026-05-01 08:56 37.28100 140.06658 26714 ft 534 kts 11°
2026-05-01 08:56 37.31745 140.07602 27001 ft 536 kts 11°
2026-05-01 08:56 37.35417 140.08554 27312 ft 538 kts 11°
2026-05-01 08:57 37.39090 140.09509 27614 ft 541 kts 11°
2026-05-01 08:57 37.42738 140.10458 27884 ft 544 kts 11°
2026-05-01 08:57 37.46467 140.11429 28163 ft 547 kts 11°
2026-05-01 08:57 37.50212 140.12406 28460 ft 550 kts 11°
2026-05-01 08:58 37.53976 140.13390 28751 ft 553 kts 11°
2026-05-01 08:58 37.57752 140.14376 29082 ft 555 kts 11°
2026-05-01 08:58 37.61554 140.15368 29428 ft 558 kts 11°
2026-05-01 08:58 37.65365 140.16373 29698 ft 561 kts 12°
2026-05-01 08:59 37.69149 140.17366 29919 ft 565 kts 11°
2026-05-01 08:59 37.73016 140.18377 30183 ft 568 kts 12°
2026-05-01 08:59 37.76951 140.19404 30453 ft 571 kts 12°
2026-05-01 08:59 37.80789 140.20409 30714 ft 573 kts 12°
2026-05-01 09:00 37.84703 140.21436 30971 ft 576 kts 12°
2026-05-01 09:00 37.88640 140.22471 31240 ft 578 kts 12°
2026-05-01 09:00 37.92600 140.23514 31481 ft 582 kts 12°
2026-05-01 09:00 37.96581 140.24564 31719 ft 585 kts 12°
2026-05-01 09:01 38.00587 140.25621 31951 ft 589 kts 12°
2026-05-01 09:01 38.04614 140.26685 32210 ft 591 kts 12°
2026-05-01 09:01 38.08611 140.27743 32418 ft 595 kts 12°
2026-05-01 09:01 38.12728 140.28834 32601 ft 598 kts 12°
2026-05-01 09:02 38.16750 140.29903 32865 ft 600 kts 12°
2026-05-01 09:02 38.20850 140.30992 33063 ft 603 kts 12°
2026-05-01 09:02 38.24966 140.32088 33263 ft 605 kts 12°
2026-05-01 09:02 38.29108 140.33191 33475 ft 608 kts 12°
2026-05-01 09:03 38.33255 140.34296 33687 ft 609 kts 12°
2026-05-01 09:03 38.37395 140.35399 34022 ft 607 kts 12°
2026-05-01 09:03 38.41535 140.36524 34391 ft 605 kts 13°
2026-05-01 09:03 38.45623 140.37762 34761 ft 603 kts 15°
2026-05-01 09:04 38.49689 140.39088 35099 ft 602 kts 15°
2026-05-01 09:04 38.53728 140.40442 35436 ft 600 kts 15°
2026-05-01 09:04 38.57724 140.41782 35753 ft 600 kts 15°
2026-05-01 09:04 38.61757 140.43121 36079 ft 599 kts 15°
2026-05-01 09:05 38.65800 140.44447 36365 ft 599 kts 14°
2026-05-01 09:05 38.69851 140.45763 36427 ft 599 kts 14°
2026-05-01 09:05 38.77944 140.48375 36428 ft 599 kts 14°
2026-05-01 09:06 38.86051 140.50995 36432 ft 600 kts 14°
2026-05-01 09:06 38.94098 140.53608 36429 ft 600 kts 14°
2026-05-01 09:07 39.02201 140.56245 36432 ft 601 kts 14°
2026-05-01 09:07 39.10323 140.58909 36425 ft 601 kts 15°
2026-05-01 09:08 39.18443 140.61570 36424 ft 601 kts 15°
2026-05-01 09:08 39.26509 140.64222 36423 ft 602 kts 15°
2026-05-01 09:09 39.34632 140.66901 36427 ft 602 kts 14°
2026-05-01 09:09 39.42743 140.69582 36429 ft 601 kts 14°
2026-05-01 09:10 39.50871 140.72277 36440 ft 600 kts 14°
2026-05-01 09:10 39.58960 140.74969 36435 ft 599 kts 14°
2026-05-01 09:11 39.67033 140.77649 36443 ft 599 kts 14°
2026-05-01 09:11 39.75064 140.80331 36444 ft 600 kts 14°
2026-05-01 09:12 39.83189 140.83049 36444 ft 599 kts 14°
2026-05-01 09:12 39.91225 140.85750 36451 ft 599 kts 14°
2026-05-01 09:13 39.99301 140.88462 36455 ft 599 kts 14°
2026-05-01 09:13 40.05596 140.90578 36456 ft 600 kts 14°
2026-05-01 09:14 40.13701 140.93311 36460 ft 601 kts 14°
2026-05-01 09:14 40.21928 140.95079 36468 ft 598 kts
2026-05-01 09:15 40.30233 140.95530 36473 ft 597 kts 358°
2026-05-01 09:15 40.38536 140.95751 36481 ft 597 kts 358°
2026-05-01 09:16 40.46833 140.95967 36492 ft 596 kts 358°
2026-05-01 09:17 40.59215 140.96361 36487 ft 595 kts 358°
2026-05-01 09:17 40.71625 140.96783 36493 ft 595 kts 358°
2026-05-01 09:18 40.83924 140.96163 36395 ft 578 kts 339°
2026-05-01 09:19 40.91397 140.92763 35254 ft 563 kts 331°
2026-05-01 09:19 40.95050 140.90893 34643 ft 562 kts 330°
2026-05-01 09:19 40.98681 140.89021 34214 ft 556 kts 330°
2026-05-01 09:20 41.05764 140.85374 33737 ft 537 kts 330°
2026-05-01 09:20 41.12832 140.82415 32748 ft 542 kts 345°
2026-05-01 09:21 41.20354 140.82614 31852 ft 543 kts 11°
2026-05-01 09:21 41.23911 140.84216 31677 ft 541 kts 25°
2026-05-01 09:21 41.30491 140.89032 30643 ft 538 kts 30°
2026-05-01 09:22 41.36886 140.93932 29890 ft 513 kts 30°
2026-05-01 09:22 41.42892 140.98496 28550 ft 486 kts 30°
2026-05-01 09:23 41.45806 141.00712 27938 ft 477 kts 30°
2026-05-01 09:23 41.50566 141.04348 27075 ft 472 kts 30°
2026-05-01 09:24 41.56217 141.08669 26136 ft 464 kts 31°
2026-05-01 09:24 41.59001 141.10800 25678 ft 460 kts 31°
2026-05-01 09:24 41.64519 141.15028 24762 ft 453 kts 31°
2026-05-01 09:25 41.69948 141.19195 23901 ft 445 kts 31°
2026-05-01 09:25 41.75276 141.23294 23028 ft 438 kts 31°
2026-05-01 09:26 41.77902 141.25317 22515 ft 434 kts 31°
2026-05-01 09:26 41.83092 141.29322 21534 ft 426 kts 31°
2026-05-01 09:26 41.85651 141.31299 21089 ft 421 kts 31°
2026-05-01 09:27 41.90683 141.35192 20194 ft 414 kts 31°
2026-05-01 09:27 41.93174 141.37122 19750 ft 411 kts 31°
2026-05-01 09:27 41.95643 141.39037 19303 ft 409 kts 31°
2026-05-01 09:28 41.98099 141.40943 18861 ft 407 kts 31°
2026-05-01 09:28 42.00553 141.42848 18414 ft 405 kts 31°
2026-05-01 09:28 42.02956 141.44716 17977 ft 403 kts 31°
2026-05-01 09:28 42.05372 141.46594 17488 ft 400 kts 31°
2026-05-01 09:29 42.10158 141.50324 16702 ft 393 kts 31°
2026-05-01 09:29 42.12524 141.52167 16499 ft 391 kts 32°
2026-05-01 09:30 42.17237 141.55731 15712 ft 386 kts 30°
2026-05-01 09:30 42.19597 141.57462 15478 ft 385 kts 30°
2026-05-01 09:30 42.24249 141.60903 15053 ft 380 kts 31°
2026-05-01 09:31 42.26551 141.62609 14837 ft 363 kts 31°
2026-05-01 09:31 42.28706 141.64210 14603 ft 344 kts 32°
2026-05-01 09:31 42.32826 141.67288 14227 ft 339 kts 32°
2026-05-01 09:32 42.34889 141.68832 14029 ft 338 kts 31°
2026-05-01 09:32 42.38986 141.71893 13641 ft 335 kts 31°
2026-05-01 09:32 42.41018 141.73415 13414 ft 332 kts 32°
2026-05-01 09:33 42.43032 141.74924 13159 ft 330 kts 32°
2026-05-01 09:33 42.45044 141.76437 12994 ft 329 kts 32°
2026-05-01 09:33 42.49041 141.79457 12975 ft 329 kts 32°
2026-05-01 09:34 42.51045 141.80965 12837 ft 328 kts 32°
2026-05-01 09:34 42.53032 141.82462 12404 ft 327 kts 32°
2026-05-01 09:34 42.57009 141.85432 11512 ft 325 kts 30°
2026-05-01 09:35 42.59146 141.86459 11069 ft 328 kts 12°
2026-05-01 09:35 42.63654 141.86384 10486 ft 320 kts 356°
2026-05-01 09:35 42.65818 141.86150 10256 ft 304 kts 356°
2026-05-01 09:36 42.67885 141.85933 9995 ft 290 kts 357°
2026-05-01 09:36 42.69868 141.85732 9592 ft 284 kts 357°
2026-05-01 09:36 42.71807 141.85540 9081 ft 282 kts 357°
2026-05-01 09:36 42.73754 141.85352 8485 ft 279 kts 358°
2026-05-01 09:37 42.75660 141.85167 8003 ft 271 kts 358°
2026-05-01 09:37 42.79455 141.84806 7292 ft 273 kts 358°
2026-05-01 09:37 42.81351 141.84635 6944 ft 273 kts 358°
2026-05-01 09:38 42.85133 141.84285 6268 ft 272 kts 358°
2026-05-01 09:38 42.87013 141.84109 5941 ft 270 kts 358°
2026-05-01 09:38 42.88885 141.83932 5607 ft 269 kts 358°
2026-05-01 09:39 42.92611 141.83561 5034 ft 265 kts 358°
2026-05-01 09:39 42.94446 141.83370 4768 ft 264 kts 358°
2026-05-01 09:39 42.96251 141.83174 4535 ft 262 kts 358°
2026-05-01 09:40 42.98036 141.82963 4383 ft 246 kts 358°
2026-05-01 09:40 43.01266 141.82553 4035 ft 225 kts 358°
2026-05-01 09:40 43.02830 141.82298 3986 ft 228 kts 352°
2026-05-01 09:41 43.04247 141.81353 3992 ft 228 kts 316°
2026-05-01 09:41 43.06206 141.78008 3985 ft 224 kts 300°
2026-05-01 09:41 43.06784 141.76129 3991 ft 212 kts 270°
2026-05-01 09:42 43.06790 141.74185 3990 ft 200 kts 252°
2026-05-01 09:42 43.06617 141.72303 3985 ft 199 kts 250°
2026-05-01 09:42 43.05929 141.68759 3283 ft 184 kts 224°
2026-05-01 09:43 43.03928 141.67386 2987 ft 160 kts 182°
2026-05-01 09:43 43.02840 141.66996 2974 ft 160 kts 187°
2026-05-01 09:43 43.01755 141.66743 2982 ft 156 kts 180°
2026-05-01 09:44 42.99536 141.66408 2412 ft 161 kts 179°
2026-05-01 09:44 42.98417 141.66250 2094 ft 162 kts 178°
2026-05-01 09:44 42.97303 141.66117 1988 ft 160 kts 174°
2026-05-01 09:45 42.96197 141.66217 1978 ft 159 kts 167°
2026-05-01 09:45 42.93998 141.66545 1991 ft 157 kts 167°
2026-05-01 09:45 42.92918 141.66704 1985 ft 155 kts 166°
2026-05-01 09:46 42.91869 141.66889 1975 ft 145 kts 166°
2026-05-01 09:46 42.90915 141.67059 1979 ft 135 kts 166°
2026-05-01 09:46 42.89984 141.67221 1983 ft 135 kts 166°
2026-05-01 09:46 42.89058 141.67380 1986 ft 135 kts 166°
2026-05-01 09:47 42.88138 141.67543 1953 ft 134 kts 167°
2026-05-01 09:47 42.87220 141.67701 1785 ft 128 kts 167°
2026-05-01 09:47 42.86363 141.67844 1613 ft 121 kts 163°
2026-05-01 09:47 42.85560 141.67993 1457 ft 116 kts 165°
2026-05-01 09:48 42.84734 141.68142 1311 ft 123 kts 165°
2026-05-01 09:48 42.83868 141.68294 1122 ft 128 kts 166°
2026-05-01 09:48 42.82980 141.68452 944 ft 130 kts 166°
2026-05-01 09:48 42.82082 141.68611 758 ft 129 kts 170°
2026-05-01 09:49 42.81192 141.68765 582 ft 129 kts 168°
2026-05-01 09:49 42.80302 141.68924 408 ft 129 kts 169°
2026-05-01 09:49 42.79408 141.69078 237 ft 129 kts 169°
2026-05-01 09:49 42.78513 141.69233 101 ft 130 kts 169°
2026-05-01 09:50 42.77694 141.69386 85 ft 88 kts 173°
2026-05-01 09:50 42.77295 141.69453 84 ft 40 kts 173°
2026-05-01 09:50 42.77036 141.69498 72 ft 31 kts 172°
2026-05-01 09:50 42.76869 141.69509 64 ft 21 kts 187°
2026-05-01 09:51 42.76737 141.69462 68 ft 18 kts 200°
2026-05-01 09:51 42.76645 141.69410 68 ft 10 kts 208°
2026-05-01 09:51 42.76614 141.69348 67 ft 7 kts 255°
2026-05-01 09:51 42.76606 141.69268 69 ft 11 kts 262°
2026-05-01 09:52 42.76596 141.69173 82 ft 10 kts 262°
2026-05-01 09:52 42.76592 141.69071 68 ft 10 kts 278°
2026-05-01 09:52 42.76623 141.69000 82 ft 8 kts 317°
2026-05-01 09:52 42.76669 141.68971 85 ft 9 kts 345°
2026-05-01 09:53 42.76776 141.68947 85 ft 22 kts 352°
2026-05-01 09:53 42.76941 141.68919 87 ft 24 kts 353°
2026-05-01 09:53 42.77102 141.68890 88 ft 23 kts 353°
2026-05-01 09:53 42.77258 141.68862 87 ft 22 kts 352°
2026-05-01 09:54 42.77408 141.68836 89 ft 21 kts 352°
2026-05-01 09:54 42.77554 141.68809 88 ft 21 kts 352°
2026-05-01 09:54 42.77696 141.68784 91 ft 20 kts 353°
2026-05-01 09:54 42.77833 141.68761 93 ft 20 kts 353°
2026-05-01 09:55 42.77966 141.68738 91 ft 19 kts 353°
2026-05-01 09:55 42.78094 141.68716 93 ft 18 kts 353°
2026-05-01 09:55 42.78218 141.68695 93 ft 17 kts 353°
2026-05-01 09:55 42.78318 141.68677 92 ft 11 kts 349°
2026-05-01 09:56 42.78380 141.68630 95 ft 11 kts 316°
2026-05-01 09:56 42.78415 141.68540 94 ft 11 kts 294°
2026-05-01 09:56 42.78463 141.68473 95 ft 10 kts 335°
2026-05-01 09:56 42.78526 141.68446 96 ft 9 kts 328°
2026-05-01 09:57 42.78561 141.68375 95 ft 8 kts 294°
2026-05-01 09:57 42.78583 141.68315 96 ft 6 kts 296°
2026-05-01 09:57 42.78600 141.68267 94 ft 5 kts 297°
2026-05-01 09:57 42.78607 141.68248 98 ft 2 kts 296°
2026-05-01 09:58 42.78608 141.68246 96 ft 0 kts 296°